Time_in_sec,gx,gy,gz
1314362543.22049809,0.12849679,0.02100784,-0.99148739
1314362543.26949716,0.12821705,0.02090963,-0.99152568
1314362543.31744695,0.12837950,0.02125367,-0.99149735
1314362543.36851549,0.12851792,0.02118863,-0.99148080
1314362543.41745019,0.12874110,0.02098720,-0.99145613
1314362543.46949983,0.12876035,0.02084046,-0.99145673
1314362543.52055693,0.12896644,0.02075682,-0.99143170
1314362543.56869173,0.12901138,0.02103880,-0.99141991
1314362543.62059188,0.12879642,0.02117333,-0.99144499
1314362543.66948223,0.12883797,0.02122877,-0.99143841
1314362543.70950198,0.12886621,0.02126427,-0.99143398
1314362543.76859474,0.12897467,0.02118973,-0.99142147
1314362543.81747913,0.12910933,0.02143342,-0.99139870
1314362543.86942124,0.12910373,0.02119424,-0.99140457
1314362543.92058635,0.12927410,0.02103978,-0.99138566
1314362543.96961331,0.12940985,0.02115849,-0.99136543
1314362544.02056146,0.12982659,0.02112222,-0.99131171
1314362544.06948471,0.13006639,0.02116595,-0.99127934
1314362544.10947514,0.13011875,0.02111387,-0.99127358
1314362544.16947794,0.13010175,0.02092307,-0.99127986
1314362544.21745062,0.13011339,0.02063702,-0.99128433
1314362544.26950622,0.13008715,0.02089183,-0.99128244
1314362544.32058120,0.13006736,0.02109721,-0.99128068
1314362544.36950898,0.12987994,0.02086235,-0.99131023
1314362544.42053628,0.12984205,0.02092237,-0.99131392
1314362544.46848536,0.12997627,0.02110098,-0.99129255
1314362544.51742005,0.13004329,0.02109008,-0.99128399
1314362544.56846428,0.12984637,0.02114303,-0.99130868
1314362544.61747670,0.12995589,0.02108409,-0.99129558
1314362544.66947722,0.12990874,0.02110062,-0.99130141
1314362544.72049856,0.12992735,0.02105423,-0.99129996
1314362544.77018666,0.13009815,0.02129443,-0.99127242
1314362544.82047319,0.12998730,0.02105992,-0.99129198
1314362544.86947203,0.12978063,0.02103660,-0.99131955
1314362544.92049456,0.12995265,0.02124048,-0.99129267
1314362544.96858835,0.12977509,0.02119190,-0.99131697
1314362545.01749158,0.12986128,0.02108985,-0.99130786
1314362545.06956196,0.12981275,0.02078636,-0.99132062
1314362545.12050486,0.12990095,0.02082462,-0.99130827
1314362545.16951489,0.12983874,0.02103088,-0.99131206
1314362545.22144079,0.12950886,0.02092735,-0.99135740
1314362545.26954532,0.12950512,0.02081508,-0.99136026
1314362545.32146597,0.12960993,0.02081528,-0.99134655
1314362545.36954117,0.12967097,0.02101593,-0.99133434
1314362545.41744947,0.12968432,0.02098336,-0.99133328
1314362545.46857238,0.12959326,0.02108216,-0.99134309
1314362545.52055144,0.12951462,0.02125995,-0.99134957
1314362545.56951141,0.12947944,0.02121011,-0.99135524
1314362545.62146401,0.12932211,0.02123602,-0.99137522
1314362545.66855192,0.12931179,0.02118649,-0.99137762
1314362545.70955610,0.12937888,0.02112191,-0.99137025
1314362545.76856446,0.12946596,0.02111361,-0.99135906
1314362545.81747556,0.12952364,0.02107885,-0.99135226
1314362545.86950612,0.12929589,0.02129091,-0.99137746
1314362545.91751885,0.12927230,0.02124323,-0.99138156
1314362545.96950197,0.12918684,0.02140076,-0.99138931
1314362546.01738691,0.12911068,0.02137171,-0.99139986
1314362546.06946945,0.12899771,0.02140823,-0.99141378
1314362546.10951304,0.12887806,0.02143273,-0.99142881
1314362546.16954470,0.12881131,0.02112998,-0.99144398
1314362546.21747994,0.12903251,0.02117851,-0.99141418
1314362546.26937985,0.12901865,0.02108743,-0.99141793
1314362546.31752062,0.12907393,0.02102753,-0.99141201
1314362546.37349510,0.12905926,0.02098341,-0.99141485
1314362546.41746712,0.12867912,0.02095624,-0.99146484
1314362546.47251010,0.12900095,0.02115614,-0.99141877
1314362546.52048016,0.12884304,0.02121799,-0.99143798
1314362546.56944799,0.12911988,0.02112995,-0.99140384
1314362546.61745691,0.12958581,0.02122295,-0.99134106
1314362546.66950560,0.12938504,0.02104281,-0.99137113
1314362546.71873665,0.12934438,0.02104728,-0.99137634
1314362546.76820850,0.12922893,0.02127375,-0.99138656
1314362546.81900549,0.12913859,0.02089793,-0.99140633
1314362546.86938405,0.12946906,0.02093157,-0.99136251
1314362546.91876149,0.12971105,0.02098131,-0.99132983
1314362546.97254038,0.12982120,0.02098903,-0.99131525
1314362547.01747298,0.12966735,0.02085001,-0.99133832
1314362547.06850886,0.12985855,0.02098403,-0.99131046
1314362547.11871457,0.12995772,0.02084781,-0.99130034
1314362547.16154242,0.13017114,0.02098700,-0.99126940
1314362547.21803045,0.13027359,0.02085890,-0.99125864
1314362547.26948905,0.13050901,0.02104233,-0.99122380
1314362547.30951238,0.13054356,0.02135135,-0.99121264
1314362547.36958480,0.13063220,0.02125076,-0.99120312
1314362547.41747785,0.13041704,0.02142104,-0.99122779
1314362547.46853375,0.13045127,0.02136527,-0.99122449
1314362547.52051544,0.13058834,0.02147382,-0.99120410
1314362547.56948113,0.13069165,0.02172095,-0.99118509
1314362547.62450910,0.13062417,0.02171634,-0.99119409
1314362547.66947746,0.13041869,0.02193012,-0.99121644
1314362547.71733475,0.13047917,0.02174965,-0.99121246
1314362547.76953340,0.13043356,0.02187894,-0.99121562
1314362547.81744742,0.13048422,0.02196730,-0.99120699
1314362547.86931491,0.13023593,0.02199593,-0.99123901
1314362547.92057514,0.13021732,0.02221723,-0.99123652
1314362547.96929955,0.13031596,0.02216593,-0.99122471
1314362548.01733017,0.13067321,0.02221232,-0.99117664
1314362548.06950045,0.13071659,0.02243713,-0.99116585
1314362548.11738849,0.13076483,0.02224649,-0.99116379
1314362548.16956902,0.13070934,0.02224197,-0.99117121
1314362548.21744871,0.13087626,0.02226714,-0.99114862
1314362548.26950097,0.13081246,0.02211389,-0.99116047
1314362548.31749201,0.13073531,0.02193070,-0.99117472
1314362548.37143946,0.13085802,0.02203342,-0.99115625
1314362548.42059660,0.13046171,0.02220478,-0.99120467
1314362548.46947575,0.13050741,0.02227704,-0.99119703
1314362548.51730418,0.13043302,0.02239441,-0.99120418
1314362548.56953764,0.13014633,0.02228472,-0.99124433
1314362548.61747742,0.13016038,0.02244365,-0.99123890
1314362548.66954875,0.13030011,0.02247832,-0.99121976
1314362548.71753335,0.13028927,0.02210759,-0.99122952
1314362548.76927185,0.13049534,0.02213226,-0.99120186
1314362548.82048869,0.13050879,0.02223834,-0.99119772
1314362548.86948586,0.13083271,0.02230457,-0.99115352
1314362548.90948248,0.13080128,0.02254566,-0.99115222
1314362548.96854138,0.13109346,0.02234563,-0.99111814
1314362549.01744914,0.13110055,0.02237933,-0.99111645
1314362549.06941843,0.13116597,0.02235769,-0.99110828
1314362549.12060547,0.13106199,0.02240524,-0.99112096
1314362549.16953921,0.13102493,0.02242834,-0.99112534
1314362549.22059226,0.13088306,0.02249771,-0.99114251
1314362549.26949310,0.13058416,0.02252030,-0.99118142
1314362549.30882883,0.13037084,0.02253073,-0.99120927
1314362549.36859417,0.13035215,0.02263704,-0.99120930
1314362549.41745806,0.13067541,0.02277433,-0.99116359
1314362549.46157050,0.13075322,0.02262876,-0.99115667
1314362549.51735926,0.13077645,0.02262651,-0.99115365
1314362549.56553245,0.13086368,0.02258113,-0.99114317
1314362549.62147045,0.13102854,0.02259089,-0.99112117
1314362549.66949701,0.13081588,0.02256711,-0.99114980
1314362549.70949697,0.13093911,0.02263296,-0.99113203
1314362549.76848435,0.13088392,0.02268712,-0.99113808
1314362549.81747866,0.13076383,0.02280480,-0.99115123
1314362549.86945724,0.13084525,0.02286053,-0.99113920
1314362549.91724396,0.13109569,0.02277947,-0.99110797
1314362549.96947622,0.13131596,0.02281733,-0.99107794
1314362550.02046871,0.13132063,0.02274359,-0.99107902
1314362550.06945586,0.13126421,0.02265525,-0.99108852
1314362550.10945868,0.13130208,0.02278361,-0.99108056
1314362550.16937542,0.13126389,0.02245959,-0.99109301
1314362550.21745014,0.13132817,0.02258458,-0.99108166
1314362550.26882887,0.13144358,0.02253755,-0.99106743
1314362550.32058859,0.13158018,0.02253127,-0.99104944
1314362550.36947751,0.13161412,0.02251305,-0.99104535
1314362550.41754198,0.13167885,0.02244652,-0.99103826
1314362550.46949887,0.13161362,0.02257760,-0.99104395
1314362550.51721621,0.13167858,0.02262407,-0.99103426
1314362550.56935382,0.13169556,0.02266722,-0.99103102
1314362550.61757064,0.13141639,0.02254181,-0.99107094
1314362550.66951084,0.13159618,0.02252801,-0.99104739
1314362550.71751428,0.13168478,0.02257164,-0.99103463
1314362550.76947570,0.13166588,0.02250894,-0.99103857
1314362550.82151675,0.13166346,0.02270263,-0.99103447
1314362550.86849523,0.13178050,0.02255745,-0.99102223
1314362550.91719484,0.13169427,0.02233680,-0.99103869
1314362550.96934938,0.13164306,0.02216934,-0.99104925
1314362551.01750183,0.13148222,0.02218660,-0.99107022
1314362551.06934333,0.13125137,0.02209566,-0.99110285
1314362551.12151742,0.13107770,0.02248287,-0.99111713
1314362551.17352629,0.13110407,0.02243221,-0.99111479
1314362551.21731162,0.13112278,0.02272134,-0.99110572
1314362551.26999569,0.13089368,0.02261568,-0.99113842
1314362551.31750488,0.13070600,0.02284297,-0.99115798
1314362551.37223268,0.13080641,0.02291553,-0.99114306
1314362551.41768980,0.13098616,0.02298431,-0.99111773
1314362551.46920657,0.13096374,0.02318645,-0.99111598
1314362551.52352214,0.13051674,0.02311686,-0.99117657
1314362551.56948161,0.13079861,0.02303650,-0.99114128
1314362551.61824036,0.13103486,0.02312362,-0.99110805
1314362551.66949177,0.13114509,0.02279622,-0.99110105
1314362551.71749806,0.13124564,0.02287521,-0.99108592
1314362551.76859450,0.13137448,0.02273729,-0.99107203
1314362551.81746697,0.13139752,0.02282587,-0.99106694
1314362551.86860633,0.13111966,0.02283068,-0.99110362
1314362551.91730475,0.13084976,0.02269449,-0.99114242
1314362551.97045016,0.13089612,0.02286713,-0.99113233
1314362552.02120423,0.13111603,0.02278217,-0.99110522
1314362552.06948686,0.13120619,0.02290838,-0.99109038
1314362552.10947275,0.13120047,0.02270624,-0.99109579
1314362552.16952777,0.13132019,0.02270946,-0.99107986
1314362552.22145224,0.13141492,0.02261458,-0.99106947
1314362552.26951694,0.13147024,0.02271154,-0.99105992
1314362552.31729078,0.13133088,0.02274354,-0.99107766
1314362552.37173367,0.13137693,0.02279602,-0.99107035
1314362552.42125297,0.13142787,0.02272928,-0.99106513
1314362552.46952009,0.13172380,0.02252264,-0.99103056
1314362552.50946999,0.13173415,0.02258888,-0.99102768
1314362552.56857705,0.13185773,0.02248824,-0.99101353
1314362552.62144995,0.13206470,0.02309926,-0.99097192
1314362552.66851926,0.13218864,0.02302770,-0.99095706
1314362552.71727824,0.13243168,0.02298288,-0.99092565
1314362552.76948619,0.13238282,0.02324943,-0.99092596
1314362552.82052660,0.13247721,0.02336814,-0.99091055
1314362552.86948991,0.13257404,0.02360983,-0.99089187
1314362552.92048216,0.13253657,0.02358573,-0.99089746
1314362552.96951532,0.13244925,0.02358737,-0.99090909
1314362553.02114868,0.13263988,0.02362709,-0.99088265
1314362553.06914759,0.13273776,0.02333856,-0.99087638
1314362553.12060547,0.13274661,0.02335792,-0.99087474
1314362553.16948271,0.13292771,0.02344832,-0.99084832
1314362553.21752524,0.13289432,0.02335380,-0.99085503
1314362553.26948810,0.13278979,0.02352862,-0.99086491
1314362553.30948758,0.13253475,0.02355448,-0.99089844
1314362553.36849403,0.13256816,0.02349236,-0.99089545
1314362553.42152762,0.13254600,0.02339817,-0.99090064
1314362553.46851850,0.13276319,0.02348520,-0.99086951
1314362553.52151656,0.13279001,0.02369679,-0.99086088
1314362553.56947708,0.13298548,0.02343778,-0.99084082
1314362553.62050819,0.13270848,0.02373277,-0.99087094
1314362553.66853189,0.13273199,0.02358274,-0.99087137
1314362553.70908761,0.13281599,0.02376812,-0.99085569
1314362553.76852465,0.13281016,0.02387460,-0.99085391
1314362553.82152987,0.13289520,0.02385850,-0.99084289
1314362553.86861992,0.13288547,0.02395434,-0.99084189
1314362553.92054224,0.13263835,0.02398718,-0.99087420
1314362553.96948195,0.13262472,0.02382365,-0.99087997
1314362554.02060652,0.13263460,0.02374620,-0.99088051
1314362554.06854153,0.13260133,0.02371408,-0.99088573
1314362554.12117243,0.13272102,0.02378674,-0.99086796
1314362554.16923261,0.13254055,0.02361473,-0.99089623
1314362554.22147250,0.13253330,0.02344522,-0.99090123
1314362554.26961064,0.13255500,0.02361359,-0.99089433
1314362554.32122564,0.13244594,0.02353890,-0.99091069
1314362554.36994648,0.13271774,0.02379275,-0.99086826
1314362554.42155480,0.13257033,0.02410796,-0.99088037
1314362554.46950126,0.13236689,0.02438625,-0.99090076
1314362554.52049708,0.13250837,0.02432871,-0.99088327
1314362554.56910372,0.13263650,0.02442635,-0.99086372
1314362554.62144971,0.13265453,0.02444249,-0.99086091
1314362554.66948152,0.13267624,0.02450779,-0.99085639
1314362554.72108269,0.13246974,0.02455888,-0.99088275
1314362554.76949263,0.13256737,0.02441674,-0.99087321
1314362554.82050014,0.13269816,0.02446361,-0.99085455
1314362554.86947131,0.13254846,0.02471993,-0.99086822
1314362554.92151141,0.13244252,0.02457434,-0.99088601
1314362554.96848917,0.13224750,0.02463309,-0.99091060
1314362555.02144980,0.13194402,0.02455191,-0.99095307
1314362555.06846571,0.13185608,0.02463874,-0.99096262
1314362555.12052703,0.13193676,0.02444780,-0.99095661
1314362555.17349005,0.13178285,0.02461967,-0.99097283
1314362555.22108698,0.13180985,0.02472514,-0.99096661
1314362555.26946330,0.13166924,0.02463203,-0.99098763
1314362555.32049799,0.13173534,0.02469317,-0.99097732
1314362555.36851954,0.13163034,0.02461936,-0.99099311
1314362555.42147470,0.13168958,0.02458279,-0.99098615
1314362555.46849847,0.13145317,0.02478927,-0.99101239
1314362555.52059603,0.13126328,0.02495612,-0.99103337
1314362555.57079268,0.13149292,0.02508457,-0.99099969
1314362555.62052441,0.13143772,0.02490717,-0.99101148
1314362555.66947150,0.13139795,0.02510132,-0.99101186
1314362555.72054243,0.13148382,0.02500170,-0.99100299
1314362555.76860762,0.13134749,0.02498602,-0.99102146
1314362555.82144785,0.13148205,0.02497452,-0.99100391
1314362555.86862159,0.13151845,0.02513046,-0.99099513
1314362555.92067909,0.13163416,0.02528367,-0.99097587
1314362555.97214270,0.13172802,0.02512904,-0.99096734
1314362556.02052975,0.13187325,0.02515146,-0.99094745
1314362556.06947589,0.13182761,0.02538656,-0.99094753
1314362556.12056375,0.13189617,0.02512025,-0.99094519
1314362556.16869259,0.13194991,0.02517621,-0.99093662
1314362556.22144818,0.13196160,0.02499138,-0.99093974
1314362556.26947832,0.13181008,0.02519048,-0.99095486
1314362556.31825328,0.13171365,0.02537402,-0.99096300
1314362556.36986351,0.13174389,0.02528552,-0.99096124
1314362556.42067814,0.13166460,0.02525601,-0.99097254
1314362556.46948647,0.13164938,0.02534042,-0.99097240
1314362556.50948572,0.13168095,0.02529268,-0.99096943
1314362556.56948590,0.13158860,0.02543266,-0.99097811
1314362556.62165451,0.13186658,0.02525853,-0.99094561
1314362556.66862869,0.13195625,0.02544378,-0.99092894
1314362556.72077680,0.13193870,0.02556013,-0.99092828
1314362556.76974940,0.13179847,0.02569775,-0.99094338
1314362556.81829000,0.13158049,0.02567090,-0.99097305
1314362556.86962581,0.13154971,0.02599219,-0.99096876
1314362556.91310096,0.13162814,0.02606305,-0.99095648
1314362556.96952367,0.13168832,0.02582766,-0.99095465
1314362557.02147698,0.13170812,0.02604383,-0.99094636
1314362557.06950831,0.13153828,0.02577129,-0.99097605
1314362557.12067485,0.13126786,0.02573943,-0.99101273
1314362557.16947341,0.13124041,0.02574403,-0.99101625
1314362557.22154880,0.13154694,0.02556969,-0.99098012
1314362557.26948977,0.13145791,0.02574643,-0.99098736
1314362557.32050037,0.13157502,0.02567901,-0.99097356
1314362557.36960959,0.13189149,0.02556541,-0.99093443
1314362557.42152405,0.13176462,0.02568615,-0.99094819
1314362557.46850491,0.13175263,0.02565314,-0.99095063
1314362557.52053046,0.13182599,0.02561488,-0.99094187
1314362557.56973839,0.13162111,0.02574663,-0.99096569
1314362557.62076068,0.13151781,0.02576419,-0.99097895
1314362557.66948223,0.13137284,0.02604808,-0.99099075
1314362557.70946670,0.13133777,0.02608118,-0.99099453
1314362557.76859927,0.13118406,0.02614790,-0.99101313
1314362557.82147431,0.13146345,0.02631231,-0.99097176
1314362557.86855888,0.13155883,0.02615479,-0.99096327
1314362557.92459273,0.13137545,0.02608724,-0.99098938
1314362557.96946883,0.13130212,0.02616650,-0.99099701
1314362558.02081060,0.13135449,0.02608119,-0.99099232
1314362558.06946707,0.13136736,0.02598519,-0.99099313
1314362558.12072420,0.13131434,0.02606721,-0.99099800
1314362558.16963267,0.13130487,0.02605758,-0.99099951
1314362558.22144389,0.13115787,0.02618319,-0.99101567
1314362558.26850748,0.13111928,0.02619853,-0.99102037
1314362558.32048917,0.13101948,0.02638930,-0.99102851
1314362558.37062216,0.13092890,0.02649836,-0.99103757
1314362558.42152953,0.13108342,0.02651697,-0.99101664
1314362558.46861959,0.13131105,0.02681400,-0.99097852
1314362558.52049589,0.13148956,0.02697622,-0.99095044
1314362558.56896806,0.13172440,0.02716089,-0.99091421
1314362558.62145448,0.13156760,0.02728403,-0.99093166
1314362558.66960192,0.13146282,0.02727793,-0.99094573
1314362558.72167349,0.13137393,0.02737186,-0.99095493
1314362558.76951718,0.13150977,0.02723204,-0.99094076
1314362558.82163000,0.13166422,0.02713257,-0.99092298
1314362558.86950850,0.13179448,0.02674706,-0.99091615
1314362558.92100620,0.13156252,0.02669035,-0.99094850
1314362558.96868324,0.13171921,0.02651270,-0.99093245
1314362559.02147985,0.13204027,0.02659938,-0.99088740
1314362559.07203269,0.13209635,0.02657311,-0.99088063
1314362559.12167788,0.13207562,0.02659304,-0.99088286
1314362559.16947150,0.13226531,0.02665697,-0.99085584
1314362559.22051311,0.13231206,0.02687929,-0.99084359
1314362559.26949620,0.13240424,0.02690424,-0.99083060
1314362559.32095742,0.13271250,0.02704060,-0.99078565
1314362559.36961389,0.13267820,0.02723984,-0.99078478
1314362559.42149258,0.13268105,0.02702555,-0.99079027
1314362559.46859765,0.13288004,0.02709481,-0.99076171
1314362559.52160287,0.13305600,0.02701724,-0.99074021
1314362559.56947374,0.13302380,0.02709120,-0.99074252
1314362559.62048912,0.13314442,0.02693259,-0.99073064
1314362559.66947103,0.13320017,0.02691640,-0.99072359
1314362559.70949626,0.13333238,0.02716427,-0.99069904
1314362559.76846576,0.13327247,0.02690001,-0.99071431
1314362559.82149529,0.13332440,0.02682176,-0.99070944
1314362559.87248135,0.13349719,0.02636887,-0.99069833
1314362559.92051244,0.13345502,0.02651790,-0.99070003
1314362559.96949601,0.13333419,0.02656564,-0.99071503
1314362560.02050948,0.13331813,0.02647606,-0.99071958
1314362560.07330513,0.13318229,0.02650095,-0.99073719
1314362560.12350821,0.13305009,0.02642933,-0.99075686
1314362560.16851068,0.13326884,0.02654815,-0.99072429
1314362560.22406507,0.13323563,0.02643792,-0.99073170
1314362560.26950264,0.13330281,0.02655790,-0.99071946
1314362560.32218719,0.13346808,0.02679146,-0.99069091
1314362560.36958742,0.13371534,0.02676815,-0.99065820
1314362560.42223120,0.13360983,0.02710912,-0.99066317
1314362560.46948934,0.13377051,0.02725499,-0.99063748
1314362560.52054811,0.13376339,0.02724230,-0.99063879
1314362560.56947851,0.13345059,0.02727302,-0.99068013
1314362560.62178922,0.13338233,0.02725274,-0.99068988
1314362560.66859961,0.13321847,0.02729344,-0.99071081
1314362560.72063112,0.13318100,0.02748751,-0.99071048
1314362560.77349591,0.13326044,0.02733028,-0.99070415
1314362560.82062793,0.13330780,0.02729280,-0.99069881
1314362560.86950326,0.13307172,0.02726360,-0.99073135
1314362560.92049146,0.13296892,0.02724044,-0.99074579
1314362560.96947002,0.13304677,0.02718698,-0.99073681
